CZ-6A DEB, 54532

Orbit data source: Space-Track

CZ-6A DEB, 54532 is space debris in SSO originally from a launch on Fri, 11 Nov 2022 UTC launched from the Taiyaun Space Center, China (TSC). Debris objects in space refer to the collection of defunct objects orbiting the Earth. Examples of debris include non-operational satellites, rocket bodies, and fragments generated from explosions, collisions, or faulty payload assembly.

Loading next visibility...
Identifier
54532, 2022-151KL
Orbit
SSO
Country
Flag of CNCN / PRC
Related business
Manufacturer
SAST
Mission
Spacecraft
Bus & Motor
Unknown
Mass
Unknown
Launch date (UTC)
2022-11-11 (3 years ago)
Launch vehicle
Unknown
Launch site
Taiyaun Space Center, China (TSC)
Object type
Payload
Rocket body
Debris
Shape & HBR
Unknown shape, 0.3 m
Radar Cross Section
Medium (>0.1 m² and <1 m²)

Expand to show TLE details & history
Last TLE update: 10 hours ago

TLE from 10 hours ago
0 CZ-6A DEB
1 54532U 22151KL  26130.14452649  .00000624  00000-0  16186-3 0  9994
2 54532  98.6007 186.4771 0127714  49.1335 312.0842 14.48707934184068
Epoch: 2026-05-10T03:28Z
TLE epoch observation values (Epoch: 2026-05-10T03:28:07.088Z)
Latitude
-0.00005°
Longitude
-93.50425°
Altitude
672.621 km
Speed
7.552 km/s
True Right ascension
12h 25m 54s
True Declination
0° 00' 00"
Sunlit
Object was in full shadow at epoch
Visualization orbit readout
Latitude
Unknown
Longitude
Unknown
Altitude
Unknown
Speed
Unknown
Apparent Right ascension
Unknown
Apparent Declination
Unknown
Sunlit
N/A
Visualization observer readout
Local Sidereal Time
22:08:34
Azimuth
Unknown
Elevation
Unknown
Doppler factor
Unknown
Orbital elements
Apogee altitude
817.728 km
Perigee altitude
636.244 km
Semi-major axis
7,105.123 km
Eccentricity
0.01277
Inclination
98.6007°
RAAN
186.4771°
Arg. of periapsis
49.1335°
True anomaly
310.98638°
Mean anomaly
312.0842°
Eccentric anomaly
311.53646°
Mean motion
3.62398 °/min
Orbital period
99.34 mins
BSTAR
0.00016186
Loading maneuver chart data...
Computing Atmospheric mass density...
Loading historical data...
Loading historical data...
Loading historical data...
Loading historical data...
Loading historical data...
Loading historical data...
Loading historical data...

Documentation

Showing up to 5 results
|